Regional Weather Roundup
Issued by NWS Bismarck, ND

Home | Current Version | Previous Version | Text Only | Print | Product List | Glossary On
Versions: 1 2 3 4 5 6 7 8 9 10 11 12 13 14 15 16 17 18 19 20 21 22 23 24 25 26 27 28 29 30 31 32 33 34 35 36 37 38 39 40 41 42 43 44 45 46 47 48 49 50
000
ASUS43 KBIS 080210
RWRBIS

NWR BROADCAST TEXT
NATIONAL WEATHER SERVICE BISMARCK ND
800 PM CST SUN FEB 07 2016

NOTE: "FAIR" INDICATES FEW OR NO CLOUDS BELOW 12,000 FEET WITH NO
SIGNIFICANT WEATHER AND/OR OBSTRUCTIONS TO VISIBILITY.


CITY           SKY/WX    TMP DP  RH WIND       PRES   REMARKS
WILLISTON      CLEAR     31  18  58 NW28G37   30.27R WCI  17
MINOT          FLURRIES  31  16  54 NW26G36   30.13R WCI  17
MINOT AFB      CLOUDY    29  19  67 NW26G35   30.12R WCI  14
BISMARCK       CLOUDY    36  20  52 N22G32    30.11R
DICKINSON      CLEAR     29  14  53 NW24G33   30.19R WCI  15
GARRISON         N/A     28  18  66 N30G47    30.13R WCI  12
HETTINGER ARPT CLEAR     31  14  49 NW28G38   30.21R WCI  17
JAMESTOWN      CLOUDY    23  14  68 N30G39    29.99R WCI   5
BEACH          FAIR      28  16  59 NW21      30.32R WCI  15
CARRINGTON     FLURRIES  23  19  86 NW37G49   30.04R WCI   4
HAZEN          CLOUDY    32  18  55 NW33G45   30.18R WCI  17
LINTON         MIX PCPN  32  23  69 N20G30    30.10R
MANDAN         MIX PCPN  32  18  55 NW26G40   30.11R WCI  18
OAKES          FLURRIES  23  16  74 N32G47    29.99R WCI   5
RUGBY          CLOUDY    23  19  86 NW31G38   30.06R WCI   5
STANLEY        FAIR      27  21  80 NW24G36   30.19R WCI  12
TIOGA          FAIR      27  23  86 NW21G30   30.26R WCI  13
WATFORD CITY   FAIR      30  18  59 NW22G29   30.26R WCI  17
$$

CITY           SKY/WX    TMP DP  RH WIND       PRES   REMARKS
GRAND FORKS    LGT SNOW  14   8  77 N32G40    30.00R BLWGSNOWWCI  -7
GRAND FORKS AF LGT SNOW  14   9  79 N25G35    30.00R WCI  -5
DEVILS LAKE    FLURRIES  19  14  81 N26G37    30.03R WCI   1
FARGO          LGT SNOW  17  12  80 N25G35    29.97S WCI  -1
CAVALIER       CLOUDY    14   9  79 N23G32    30.03R HAZE    WCI  -5
GRAFTON        LGT SNOW  12   9  85 NW28      30.03R WCI  -9
GWINNER          N/A     23  19  86 N23G30    29.99R WCI   7
LANGDON        LGT SNOW  12   9  85 N21       29.99R WCI  -6
ROLLA          FLURRIES  18  14  86 N36G47    30.04R WCI  -3
WALHALLA       FAIR      14  10  85 N24G37    30.05R WCI  -5
$$

CITY           SKY/WX    TMP DP  RH WIND       PRES   REMARKS
ABERDEEN       CLOUDY    29  18  63 N28G39    30.02R WCI  14
MOBRIDGE       MOCLDY    34  17  50 NW30G39   30.07R
BUFFALO          N/A     30  14  51 NW25      30.21R WCI  16
RAPID CITY     CLEAR     33   9  36 NW30G46   30.25R WCI  19
GLASGOW        CLEAR     29  18  63 NW15      30.39R WCI  18
SIDNEY         CLEAR     32  16  51 NW20G26   30.31R
WOLF POINT     CLEAR     32  19  58 NW15      30.37R
GLENDIVE       CLEAR     30  16  55 W22G29    30.35R WCI  17
MILES CITY     CLEAR     33  14  45 NW18      30.40R
BAKER          CLEAR     30  12  47 NW21G30   30.31R WCI  17
$$

CITY           SKY/WX    TMP DP  RH WIND       PRES   REMARKS
BILLINGS       MOCLDY    34   8  33 NE3       30.45R
GREAT FALLS    CLOUDY    37  12  35 SW3       30.42F
REGINA         PTCLDY    25  19  80 NW16G22   30.28R WCI  12
ESTEVAN        PTCLDY    25  19  80 NW20      30.22R WCI  11
$$




USA.gov is the U.S. government's official web portal to all federal, state and local government web resources and services.